Weather past 2 weeks in Jamestown, Saint Helena

Now
63 °F

Mild.


Feels Like: 63 °F
Forecast: N/A
Wind: 25 mph from Southeast

Location: Saint Helena Island

Current Time: Jun 2, 2015 at 9:40:47 PM

Latest Report: Jun 2, 2015 at 8:00 PM


Visibility: N/A

Pressure: 30.13 "Hg

Humidity: 61%

Dew point: 49 °F

Location of JamestownLocation

Historic Weather in Jamestown — Graph

°F

Jamestown temperature yesterday

Maximum temperature yesterday: 69 °F (at 12:00 PM)
Minimum temperature yesterday: 63 °F (at 5:00 PM)
Average temperature yesterday: 66 °F

Past Weeks' High & Low Weather Summary

 TemperatureHumidityPressure
High72 °F (May 27, 1:00 PM)100% (May 19, 5:00 AM)30.17 "Hg (May 19, 5:00 AM)
Low61 °F (Jun 2, 5:00 PM)52% (Jun 2, 8:00 AM)30.01 "Hg (May 29, 4:00 AM)
Average66 °F81%30.09 "Hg
* Reported May 18 8:00 PM — Jun 2 8:00 PM, Jamestown, Weather by CustomWeather, © 2015

Note: Actual official high and low records may vary slightly from our data, if they occured in-between our weather recording intervals... More about our weather records

Advertising

Jamestown weather history for previous 24 hours

 ConditionsComfort  
Time TempWeatherWind HumidityBarometerVisibility
8:00 PM
Tue, Jun 2
63 °FMild.25 mph61%30.13 "HgN/A
7:00 PM64 °FMild.28 mph68%30.10 "HgN/A
6:00 PM63 °FMild.25 mph75%30.10 "HgN/A
5:00 PM61 °FCool.21 mph92%30.11 "HgN/A
4:00 PM62 °FMild.21 mph92%30.10 "HgN/A
3:00 PM65 °FOvercast.25 mph72%30.09 "Hg9 mi
2:00 PM64 °FOvercast.23 mph73%30.12 "Hg12 mi
1:00 PM65 °FPartly sunny.28 mph76%30.13 "Hg9 mi
12:00 PM63 °FOvercast.29 mph83%30.16 "Hg9 mi
11:00 AM62 °FOvercast.32 mph83%30.17 "Hg12 mi
10:00 AM65 °FOvercast.31 mph55%30.15 "Hg12 mi
9:00 AM64 °FOvercast.32 mph63%30.14 "Hg9 mi
8:00 AM65 °FMild.31 mph52%30.10 "HgN/A
7:00 AM63 °FMild.25 mph67%30.09 "HgN/A
5:00 AM62 °FCool.22 mph83%30.08 "HgN/A
4:00 AM61 °FCool.20 mph83%30.08 "HgN/A
2:00 AM64 °FMild.23 mph75%30.10 "HgN/A
1:00 AM64 °FMild.23 mph75%30.12 "HgN/A
11:00 PM
Mon, Jun 1
65 °FMild.29 mph80%30.13 "HgN/A
10:00 PM65 °FMild.28 mph81%30.13 "HgN/A
Weather by CustomWeather, © 2015

See weather overviewHow to use our weather pages